Location: Aldenham
(51.6667°N, 0.3500°W)
Time: 08:04:08
(UTC+00:00)

Explorer 7 - Pass Details

Date: 21 February 2026
Orbit: 430 x 541 km, 50.2° (Epoch: 12 March)

Event Time Altitude Azimuth Distance (km) Brightness Sun altitude
Rises 15:10:51 0° 245° (WSW) 2,424 11.5 17.3°
Reaches altitude 10° 15:12:58 10° 240° (WSW) 1,569 11.1 17.1°
Maximum altitude 15:16:25 52° 164° (SSE) 574 7.4 16.7°
Drops below altitude 10° 15:20:00 10° 87° (E) 1,630 8.8 16.3°
Sets 15:22:14 0° 83° (E) 2,531 9.7 16.0°
